RH
43 53 58 62 71 76 80 84 86 86 87 87 87 86 82 84 82 83 82 82 82 77 73 73 71 68 74 76 79 81 85 90 90 84 87 86 82 69 59 64 75 85 84
47 54 55 60 75 80 84 84 84 80 84 87 87 85 80 80 81 77 74 72 72 73 72 70 67 51 70 74 81 81 76 72 83 82 79 72 65 63 67 68 51 39 55
48 51 54 60 76 79 84 84 82 83 85 87 86 82 72 71 68 70 72 73 72 73 74 73 70 70 72 74 77 80 79 66 79 80 76 76 76 74 76 72 67 71 54
50 52 57 62 76 77 82 84 84 86 86 84 73 67 67 67 64 65 67 75 76 73 77 77 77 77 77 79 78 87 79 83 79 80 80 81 81 76 78 81 76 81 77
53 54 58 64 75 73 80 78 81 74 68 68 61 67 69 64 59 77 74 76 78 79 78 75 74 71 61 63 70 85 93 91 91 88 86 85 85 85 84 78 83 88 88
59 57 59 63 70 76 78 82 73 69 75 59 64 70 69 55 76 72 76 84 77 77 80 76 79 68 66 69 72 73 78 82 87 87 85 91 88 87 88 91 94 95 97
58 62 64 64 72 75 75 83 89 96 68 59 70 74 77 78 75 71 78 85 85 86 86 82 76 61 73 76 80 77 78 78 83 86 94 93 87 89 90 94 95 96 94
62 67 73 74 74 78 88 89 88 85 72 63 79 77 77 68 76 78 82 92 94 92 91 89 87 82 82 76 77 88 92 90 88 87 91 92 92 86 91 91 93 95 95
67 75 76 82 84 91 91 96 94 91 67 81 80 83 85 87 81 78 88 96 93 92 83 84 76 80 75 74 94 93 88 89 72 69 69 71 78 88 84 86 95 98 95
68 72 76 83 90 93 96 95 89 68 82 83 83 88 81 89 71 71 75 99 99 89 87 78 74 71 76 82 93 96 96 87 87 86 86 87 82 84 78 86 89 93 90
67 72 85 90 93 84 87 71 76 87 90 94 96 90 88 83 84 68 67 91 90 88 85 81 81 80 90 87 82 96 96 91 94 95 94 94 91 92 94 95 95 96 96
76 85 87 89 86 79 67 70 77 90 90 98 97 96 96 93 70 71 65 66 70 93 92 88 93 90 77 81 92 93 93 93 97 97 97 95 96 96 97 98 99 98 97
88 91 92 87 87 82 72 75 82 85 95 97 98 97 97 93 94 73 73 70 76 91 90 87 86 76 80 88 89 90 95 95 96 96 96 96 97 97 95 97 98 99 99
90 89 87 87 92 78 75 74 91 97 97 97 98 97 98 94 97 94 89 95 86 89 95 93 91 85 87 91 91 92 96 96 96 96 96 96 96 96 96 95 98 98 99
99 88 82 92 99 93 83 87 93 89 92 96 97 97 99 99 95 80 80 86 84 87 94 96 90 89 89 88 88 91 93 93 94 95 95 95 93 93 96 98 99 98 99
99 97 92 95 97 94 95 94 82 83 82 81 84 93 96 85 77 69 71 67 61 72 94 99 97 96 95 92 93 92 90 92 92 92 94 94 94 95 96 98 99 99 100
98 98 92 96 92 88 86 92 97 86 83 81 82 80 81 88 75 65 66 65 65 74 99 99 99 97 96 91 91 91 93 92 89 92 94 94 94 94 96 98 98 98 99
96 98 95 94 88 86 95 94 96 99 100 97 87 86 87 80 66 66 69 73 95 89 97 99 98 97 93 91 91 93 92 91 93 94 94 95 95 96 95 96 97 98 100
88 94 98 96 93 92 94 96 99 99 97 98 98 95 99 83 66 72 80 98 98 97 97 98 99 97 95 94 97 96 98 94 94 96 95 95 95 95 94 95 98 97 100
84 88 92 97 94 95 96 99 99 98 97 96 99 99 99 92 94 98 100 100 100 98 99 98 98 98 98 97 98 98 97 94 93 94 96 97 96 96 95 95 96 99 98
88 86 91 91 93 94 96 99 99 100 99 98 98 98 98 95 96 98 99 100 99 99 99 98 99 99 98 98 98 97 98 98 95 95 96 96 97 98 96 97 97 98 96
95 96 95 95 95 96 97 97 97 100 98 97 98 99 100 99 98 99 100 98 99 98 97 98 98 98 97 96 98 99 98 98 98 96 97 96 97 97 96 97 97 99 96
95 94 96 96 93 97 97 97 99 98 98 98 98 98 99 99 98 99 98 97 100 100 99 99 99 98 97 97 98 98 98 97 98 99 99 98 97 96 96 98 98 97 98
95 94 94 94 94 96 96 97 98 99 100 100 99 98 100 99 98 97 97 98 100 100 100 99 98 97 96 97 97 97 96 98 97 96 98 100 99 96 97 97 96 97 97
95 95 96 96 96 96 95 95 97 98 98 98 98 98 99 100 98 98 97 98 98 100 100 99 99 97 93 97 95 95 93 89 93 94 97 98 97 96 96 97 97 96 97
92 94 94 98 99 98 97 97 99 99 100 98 98 99 99 99 98 98 98 98 97 98 99 99 98 96 95 95 95 88 87 85 91 92 97 97 96 94 97 96 93 96 97
Wind_Speed
2 0 1 0 4 5 5 5 3 1 1 3 4 4 4 5 5 4 5 5 4 4 5 5 5 3 3 4 4 4 4 3 6 3 3 3 3 4 7 5 5 5 4
3 3 4 3 5 5 5 5 3 3 2 4 4 5 5 5 5 4 5 5 5 5 5 5 5 7 6 6 4 6 6 7 5 6 4 3 3 4 3 5 7 6 4
3 4 6 5 6 7 6 6 6 5 5 5 4 4 4 4 4 5 5 4 4 3 4 5 7 8 8 6 7 6 6 7 4 4 4 3 3 0 2 3 4 4 5
6 7 7 7 7 5 6 7 5 6 5 4 3 2 2 5 4 4 3 2 3 3 4 5 6 7 8 8 8 6 5 5 4 4 3 3 3 3 2 3 4 2 5
6 6 7 7 5 6 5 6 5 6 4 4 3 3 5 4 3 3 1 2 4 4 5 5 5 9 17 14 7 6 5 4 3 4 3 2 2 2 3 2 4 3 3
7 7 8 7 6 5 5 6 4 5 5 4 4 5 4 2 4 3 3 4 4 5 5 6 5 10 9 16 17 17 12 8 8 7 6 7 7 4 3 4 3 2 3
6 5 5 5 4 3 5 4 7 8 9 0 4 4 2 2 5 6 8 4 4 5 6 6 7 7 12 9 13 17 14 15 12 8 9 8 8 5 4 4 5 4 4
4 4 3 4 5 5 3 4 4 2 7 2 4 3 3 3 7 8 9 4 4 5 6 6 7 9 8 12 11 9 7 7 8 7 8 8 8 8 6 7 9 6 4
5 4 5 4 6 5 4 5 8 5 2 3 4 3 3 4 9 10 7 4 5 6 7 7 10 9 14 20 10 10 11 9 9 15 16 17 14 13 11 7 6 6 5
4 5 6 5 5 5 6 7 4 2 5 4 3 2 2 3 9 11 9 1 3 6 7 9 15 15 20 21 13 10 9 9 7 8 7 9 10 9 14 8 6 8 6
4 5 5 5 5 4 6 3 4 5 4 3 1 1 1 4 5 10 14 3 4 6 7 8 8 19 20 15 16 7 9 10 10 8 7 5 6 7 6 7 8 8 7
3 3 3 3 3 2 1 1 4 4 3 1 1 3 2 3 8 9 15 13 14 4 7 8 8 16 18 15 12 16 16 9 5 5 4 5 5 5 5 5 6 7 7
2 3 5 5 5 4 3 4 3 2 1 2 2 1 2 2 2 8 12 12 13 7 6 11 14 15 15 10 16 16 10 6 5 4 4 3 3 5 6 4 4 5 4
3 4 3 3 5 4 3 1 2 2 0 2 2 2 2 2 2 3 4 4 9 8 6 5 6 8 7 7 7 8 6 6 5 5 4 4 4 3 3 4 2 3 1
5 5 4 2 1 2 2 1 2 2 3 2 3 3 2 3 3 7 10 4 5 6 4 3 4 6 6 6 6 7 7 7 6 6 5 5 4 4 3 3 2 2 1
5 3 2 2 1 2 1 2 4 3 5 5 6 6 3 5 7 12 10 11 13 12 3 2 3 5 5 6 6 7 6 8 8 7 6 6 6 6 4 3 1 1 1
7 2 1 1 1 1 2 2 2 6 7 7 7 7 2 4 6 11 8 8 10 8 2 3 3 4 5 5 6 6 6 7 8 7 6 7 7 6 6 3 3 2 3
4 4 2 2 1 3 2 3 2 1 2 4 6 3 2 2 7 5 5 4 3 4 1 2 3 4 5 5 6 6 6 6 6 6 7 7 7 6 6 6 5 3 2
3 2 1 2 0 2 3 3 2 2 2 3 3 4 3 4 6 4 4 2 1 1 2 2 2 3 4 4 4 4 4 5 5 5 6 6 7 6 6 6 5 6 4
2 3 1 2 1 2 3 2 3 2 3 3 2 3 2 1 2 2 1 1 2 2 2 2 3 2 2 3 3 3 3 4 5 5 5 5 6 6 6 6 5 5 4
2 3 4 3 2 3 3 3 3 3 3 3 4 4 6 4 4 3 3 3 3 3 3 3 2 2 2 2 2 3 3 3 4 5 5 5 5 6 6 4 4 3 4
2 2 3 3 3 3 3 3 4 3 4 4 5 3 5 2 3 3 3 4 4 4 3 3 2 2 2 1 1 2 2 3 3 4 5 5 5 5 5 4 4 2 3
3 3 4 3 3 4 4 3 3 4 4 4 4 4 2 4 4 4 4 4 4 3 3 3 2 2 2 1 1 0 1 3 3 3 4 5 5 5 4 3 3 3 3
4 5 5 5 4 4 4 4 4 5 4 4 4 4 4 4 4 5 5 4 3 4 3 3 3 4 3 2 1 1 2 2 2 3 4 3 4 5 3 3 3 3 3
6 5 5 5 5 6 5 5 4 4 4 4 4 3 4 4 4 4 4 4 4 3 4 4 3 4 3 3 1 1 3 5 4 4 3 3 3 4 3 2 3 3 3
7 6 5 4 4 5 6 5 4 4 4 4 4 4 4 4 5 4 4 4 4 4 4 3 4 5 4 4 3 1 4 5 5 6 3 2 2 3 2 2 4 3 3
Wind_Direction
90 141 324 63 175 164 156 163 175 199 336 327 288 287 310 307 293 287 290 304 340 22 20 14 336 327 320 296 308 286 273 251 274 277 246 280 312 330 328 326 262 222 228
223 220 250 234 198 201 192 190 205 221 231 261 283 291 314 310 327 353 41 46 31 17 352 346 332 331 309 293 269 274 273 272 237 246 231 238 251 292 306 322 318 314 289
253 258 269 267 220 224 218 216 221 237 249 259 254 278 301 1 74 75 72 51 26 7 333 323 315 310 301 292 286 280 268 276 251 243 255 227 237 261 322 313 327 333 336
250 258 272 276 235 237 234 233 242 251 256 272 254 237 57 122 108 83 73 30 347 323 308 296 291 288 288 287 286 291 305 301 289 277 270 248 221 252 255 292 300 305 307
276 287 288 295 237 232 250 263 278 282 258 221 210 87 130 137 124 116 160 290 300 294 286 281 290 303 310 306 317 308 301 296 292 291 290 266 253 275 252 250 278 274 285
317 299 295 307 260 216 246 256 265 296 300 214 120 140 164 133 153 212 235 267 287 278 286 283 276 301 305 311 302 303 294 286 279 270 266 253 254 240 240 237 231 272 290
317 348 356 336 318 321 309 356 347 311 271 195 122 130 115 206 216 312 311 257 270 278 282 284 298 305 311 296 292 291 286 280 275 270 268 251 259 234 231 249 236 217 231
3 3 354 336 304 289 330 55 61 290 273 244 129 91 41 321 331 326 330 332 309 294 291 291 291 298 290 303 297 292 276 275 268 263 258 255 238 249 224 242 254 242 239
347 341 319 301 285 253 233 231 233 220 256 110 96 77 12 328 348 11 38 12 343 315 307 306 305 309 304 312 313 308 292 272 276 281 284 285 276 262 260 263 263 241 247
322 315 315 315 291 277 252 267 297 97 105 113 89 49 11 17 10 19 18 322 314 315 313 309 309 316 318 314 299 282 275 276 276 281 279 277 275 269 268 248 244 246 245
316 334 320 316 311 311 326 312 98 101 121 97 104 334 80 48 13 18 1 341 315 327 319 316 313 317 317 342 341 314 297 280 275 262 259 264 265 260 253 242 231 227 239
336 356 9 354 315 302 255 93 110 138 138 190 359 306 313 20 26 11 359 350 339 321 311 308 300 339 348 349 339 349 353 352 294 283 265 270 271 267 250 241 243 243 228
354 348 334 333 331 331 86 101 120 156 145 247 230 267 294 338 345 353 339 338 337 320 304 324 353 353 350 342 345 356 349 342 346 343 340 331 322 331 329 317 281 282 234
331 303 301 328 344 38 38 85 125 138 168 257 276 296 289 310 309 305 303 302 323 328 319 324 340 340 330 335 346 344 342 341 343 337 324 318 315 322 317 328 308 320 11
298 296 313 357 340 335 10 136 155 231 194 212 238 215 196 304 273 322 339 342 342 4 346 338 352 349 347 351 352 347 348 346 357 346 339 345 339 333 316 312 288 339 19
293 309 353 15 50 86 51 342 331 263 276 303 278 205 248 228 303 326 354 11 358 10 4 338 339 341 345 351 352 347 351 354 358 348 347 346 340 331 332 321 334 22 302
299 266 349 24 304 298 314 276 293 323 340 334 339 335 261 219 306 341 0 18 15 20 2 322 321 335 348 352 353 349 350 354 348 348 347 345 344 336 351 333 329 344 332
300 283 244 202 77 312 295 285 278 264 282 303 324 337 157 218 324 354 25 31 2 1 332 320 332 343 354 352 356 351 350 350 351 346 347 346 346 341 354 356 357 344 332
301 296 257 278 54 271 277 289 269 278 274 271 317 347 268 256 323 357 62 124 213 286 295 322 312 350 349 345 341 340 339 347 343 339 346 346 342 345 352 353 350 348 353
340 2 218 265 315 279 279 279 284 266 274 268 292 259 254 43 0 300 291 171 220 246 263 291 305 326 323 331 325 336 342 349 350 346 339 333 336 334 349 347 353 348 338
194 253 253 263 266 264 262 261 254 249 257 274 263 237 213 183 230 222 229 218 219 230 234 246 278 299 308 317 330 343 340 333 341 337 333 332 330 334 337 328 331 335 335
219 259 271 249 261 269 260 249 254 255 261 258 268 271 227 204 227 239 228 225 224 218 208 200 245 242 244 303 321 337 324 320 320 334 330 328 326 332 335 328 336 334 336
242 254 269 257 255 266 268 263 251 248 258 255 252 261 230 231 229 235 228 223 217 215 216 191 213 270 272 284 214 229 305 312 306 296 312 319 324 335 329 319 326 332 350
234 242 255 256 254 257 255 260 266 264 260 257 256 244 240 232 227 228 229 222 213 224 208 201 208 214 258 280 214 271 299 286 296 302 307 295 313 331 330 330 331 327 328
233 231 235 249 254 261 254 253 246 250 254 251 259 236 244 233 223 224 228 214 208 194 214 209 215 218 232 184 192 301 335 345 328 308 301 301 332 341 338 341 327 332 352
238 228 236 240 244 248 255 243 243 245 251 262 258 245 230 222 225 220 214 195 201 205 210 206 213 214 188 180 186 44 8 349 338 337 334 343 9 345 342 348 356 342 343